| time (UTC) | temp F | wind direction | speed MPH | gust MPH | rain 1hr in | rain 24hr in | rain mn in | humidity % | barometer mb |
| 20260905185529 | 88 | 184 | 6.0 | 12.0 | 0.00 | 0.00 | 0.00 | 9 | 1008.8 |
| 20260905185030 | 88 | 239 | 3.0 | 11.0 | 0.00 | 0.00 | 0.00 | 10 | 1008.7 |
| 20260905184527 | 88 | 242 | 6.0 | 11.0 | 0.00 | 0.00 | 0.00 | 10 | 1008.8 |
| 20260905184026 | 87 | 217 | 4.0 | 10.0 | 0.00 | 0.00 | 0.00 | 10 | 1008.8 |
| 20260905183524 | 87 | 169 | 2.0 | 16.0 | 0.00 | 0.00 | 0.00 | 12 | 1008.8 |
| 20260905183023 | 86 | 221 | 4.0 | 10.0 | 0.00 | 0.00 | 0.00 | 12 | 1008.9 |
| 20260905182522 | 86 | 163 | 5.0 | 10.0 | 0.00 | 0.00 | 0.00 | 15 | 1009.0 |
| 20260905182021 | 86 | 171 | 3.0 | 13.0 | 0.00 | 0.00 | 0.00 | 15 | 1009.0 |
| 20260905181521 | 85 | 142 | 5.0 | 13.0 | 0.00 | 0.00 | 0.00 | 16 | 1009.0 |
| 20260905181020 | 85 | 127 | 5.0 | 10.0 | 0.00 | 0.00 | 0.00 | 17 | 1009.0 |
| 20260905180520 | 85 | 154 | 3.0 | 16.0 | 0.00 | 0.00 | 0.00 | 17 | 1009.0 |
| 20260905180025 | 85 | 140 | 8.0 | 16.0 | 0.00 | 0.00 | 0.00 | 17 | 1008.9 |
| 20260905175519 | 84 | 102 | 2.0 | 10.0 | 0.00 | 0.00 | 0.00 | 18 | 1009.0 |
| 20260905175018 | 84 | 144 | 3.0 | 10.0 | 0.00 | 0.00 | 0.00 | 18 | 1008.9 |
| 20260905174517 | 83 | 84 | 4.0 | 14.0 | 0.00 | 0.00 | 0.00 | 19 | 1008.9 |
| 20260905174016 | 83 | 132 | 6.0 | 14.0 | 0.00 | 0.00 | 0.00 | 19 | 1008.9 |
| 20260905173515 | 83 | 138 | 4.0 | 12.0 | 0.00 | 0.00 | 0.00 | 20 | 1008.9 |
| 20260905173015 | 82 | 71 | 6.0 | 13.0 | 0.00 | 0.00 | 0.00 | 20 | 1008.9 |
| 20260905172514 | 82 | 98 | 5.0 | 13.0 | 0.00 | 0.00 | 0.00 | 20 | 1008.9 |
| 20260905172015 | 82 | 146 | 5.0 | 12.0 | 0.00 | 0.00 | 0.00 | 20 | 1009.0 |
| 20260905171516 | 82 | 155 | 7.0 | 12.0 | 0.00 | 0.00 | 0.00 | 20 | 1009.1 |
| 20260905171013 | 82 | 131 | 6.0 | 13.0 | 0.00 | 0.00 | 0.00 | 20 | 1009.0 |
| 20260905170513 | 82 | 140 | 6.0 | 13.0 | 0.00 | 0.00 | 0.00 | 20 | 1009.0 |
| 20260905170014 | 81 | 88 | 4.0 | 13.0 | 0.00 | 0.00 | 0.00 | 21 | 1008.9 |
| 20260905165515 | 81 | 136 | 6.0 | 12.0 | 0.00 | 0.00 | 0.00 | 21 | 1008.9 |
| 20260905165012 | 81 | 134 | 4.0 | 14.0 | 0.00 | 0.00 | 0.00 | 22 | 1008.8 |
| 20260905164512 | 81 | 142 | 7.0 | 14.0 | 0.00 | 0.00 | 0.00 | 22 | 1008.9 |
| 20260905164010 | 81 | 146 | 3.0 | 11.0 | 0.00 | 0.00 | 0.00 | 23 | 1008.9 |
| 20260905163514 | 81 | 167 | 5.0 | 16.0 | 0.00 | 0.00 | 0.00 | 22 | 1008.8 |
| 20260905163011 | 82 | 138 | 5.0 | 16.0 | 0.00 | 0.00 | 0.00 | 21 | 1008.7 |
| 20260905162511 | 82 | 166 | 4.0 | 12.0 | 0.00 | 0.00 | 0.00 | 17 | 1008.7 |
| 20260905162008 | 82 | 201 | 4.0 | 10.0 | 0.00 | 0.00 | 0.00 | 17 | 1008.6 |
| 20260905161516 | 82 | 185 | 3.0 | 10.0 | 0.00 | 0.00 | 0.00 | 18 | 1008.6 |
| 20260905161006 | 81 | 165 | 2.0 | 8.0 | 0.00 | 0.00 | 0.00 | 19 | 1008.6 |
| 20260905160505 | 80 | 176 | 4.0 | 7.0 | 0.00 | 0.00 | 0.00 | 20 | 1008.6 |
| 20260905160006 | 79 | 163 | 2.0 | 7.0 | 0.00 | 0.00 | 0.00 | 23 | 1008.6 |
| 20260905155503 | 78 | 149 | 0.0 | 3.0 | 0.00 | 0.00 | 0.00 | 27 | 1008.7 |
| 20260905155002 | 77 | 150 | 0.0 | 6.0 | 0.00 | 0.00 | 0.00 | 27 | 1008.6 |
| 20260905154502 | 76 | 150 | 1.0 | 6.0 | 0.00 | 0.00 | 0.00 | 27 | 1008.6 |
| 20260905154003 | 76 | 151 | 0.0 | 6.0 | 0.00 | 0.00 | 0.00 | 28 | 1008.7 |
| 20260905153501 | 75 | 150 | 0.0 | 6.0 | 0.00 | 0.00 | 0.00 | 29 | 1008.8 |
| 20260905153001 | 75 | 151 | 1.0 | 6.0 | 0.00 | 0.00 | 0.00 | 29 | 1008.8 |
| 20260905152602 | 75 | 150 | 2.0 | 7.0 | 0.00 | 0.00 | 0.00 | 29 | 1008.8 |
| 20260905152100 | 74 | 152 | 1.0 | 7.0 | 0.00 | 0.00 | 0.00 | 29 | 1008.7 |
| 20260905151600 | 74 | 151 | 1.0 | 6.0 | 0.00 | 0.00 | 0.00 | 29 | 1008.6 |
| 20260905151059 | 74 | 151 | 2.0 | 6.0 | 0.00 | 0.00 | 0.00 | 29 | 1008.7 |
| 20260905150603 | 75 | 155 | 1.0 | 5.0 | 0.00 | 0.00 | 0.00 | 29 | 1008.5 |
| 20260905150059 | 75 | 155 | 1.0 | 3.0 | 0.00 | 0.00 | 0.00 | 29 | 1008.5 |
| 20260905145558 | 74 | 155 | 0.0 | 3.0 | 0.00 | 0.00 | 0.00 | 30 | 1008.5 |
| 20260905145058 | 73 | 155 | 0.0 | 5.0 | 0.00 | 0.00 | 0.00 | 31 | 1008.4 |
| 20260905144559 | 73 | 155 | 1.0 | 5.0 | 0.00 | 0.00 | 0.00 | 31 | 1008.5 |
| 20260905144058 | 73 | 155 | 1.0 | 5.0 | 0.00 | 0.00 | 0.00 | 31 | 1008.5 |
| 20260905143557 | 74 | 155 | 1.0 | 3.0 | 0.00 | 0.00 | 0.00 | 30 | 1008.4 |
| 20260905143100 | 74 | 155 | 0.0 | 2.0 | 0.00 | 0.00 | 0.00 | 29 | 1008.4 |
| 20260905142555 | 74 | 155 | 0.0 | 0.0 | 0.00 | 0.00 | 0.00 | 30 | 1008.3 |
| 20260905142056 | 72 | 155 | 0.0 | 1.0 | 0.00 | 0.00 | 0.00 | 30 | 1008.3 |
| 20260905141555 | 72 | 155 | 0.0 | 1.0 | 0.00 | 0.00 | 0.00 | 30 | 1008.2 |
| 20260905141055 | 71 | 155 | 0.0 | 0.0 | 0.00 | 0.00 | 0.00 | 32 | 1008.2 |
| 20260905140554 | 70 | 155 | 0.0 | 1.0 | 0.00 | 0.00 | 0.00 | 32 | 1008.1 |
| 20260905140059 | 70 | 155 | 0.0 | 1.0 | 0.00 | 0.00 | 0.00 | 32 | 1008.1 |
| 20260905135553 | 69 | 155 | 0.0 | 0.0 | 0.00 | 0.00 | 0.00 | 33 | 1008.1 |
| 20260905135052 | 69 | 155 | 0.0 | 1.0 | 0.00 | 0.00 | 0.00 | 33 | 1007.9 |
| 20260905134600 | 68 | 155 | 0.0 | 1.0 | 0.00 | 0.00 | 0.00 | 33 | 1007.8 |
| 20260905134050 | 68 | 155 | 0.0 | 1.0 | 0.00 | 0.00 | 0.00 | 34 | 1007.6 |
| 20260905133550 | 68 | 155 | 0.0 | 0.0 | 0.00 | 0.00 | 0.00 | 34 | 1007.5 |
| 20260905133050 | 68 | 155 | 0.0 | 0.0 | 0.00 | 0.00 | 0.00 | 34 | 1007.5 |
| 20260905132548 | 68 | 155 | 0.0 | 1.0 | 0.00 | 0.00 | 0.00 | 33 | 1007.4 |
| 20260905132049 | 68 | 155 | 0.0 | 1.0 | 0.00 | 0.00 | 0.00 | 34 | 1007.4 |
| 20260905131547 | 68 | 155 | 0.0 | 0.0 | 0.00 | 0.00 | 0.00 | 33 | 1007.2 |
| 20260905131046 | 68 | 155 | 0.0 | 0.0 | 0.00 | 0.00 | 0.00 | 33 | 1007.2 |
| 20260905130547 | 68 | 155 | 0.0 | 0.0 | 0.00 | 0.00 | 0.00 | 34 | 1007.2 |
| 20260905130045 | 68 | 155 | 0.0 | 0.0 | 0.00 | 0.00 | 0.00 | 33 | 1007.1 |
| 20260905125544 | 68 | 155 | 0.0 | 0.0 | 0.00 | 0.00 | 0.00 | 33 | 1007.1 |
| 20260905125046 | 68 | 155 | 0.0 | 0.0 | 0.00 | 0.00 | 0.00 | 33 | 1007.1 |
| 20260905124547 | 68 | 155 | 0.0 | 0.0 | 0.00 | 0.00 | 0.00 | 33 | 1007.0 |
| 20260905124042 | 68 | 155 | 0.0 | 0.0 | 0.00 | 0.00 | 0.00 | 33 | 1007.0 |
| 20260905123542 | 69 | 155 | 0.0 | 0.0 | 0.00 | 0.00 | 0.00 | 33 | 1007.0 |
| 20260905123042 | 68 | 155 | 0.0 | 0.0 | 0.00 | 0.00 | 0.00 | 33 | 1007.0 |
| 20260905122541 | 68 | 155 | 0.0 | 0.0 | 0.00 | 0.00 | 0.00 | 33 | 1007.0 |
| 20260905122041 | 69 | 155 | 0.0 | 0.0 | 0.00 | 0.00 | 0.00 | 33 | 1007.0 |
| 20260905121544 | 69 | 155 | 0.0 | 0.0 | 0.00 | 0.00 | 0.00 | 33 | 1006.9 |
| 20260905121041 | 69 | 155 | 0.0 | 0.0 | 0.00 | 0.00 | 0.00 | 33 | 1006.9 |
| 20260905120540 | 69 | 155 | 0.0 | 0.0 | 0.00 | 0.00 | 0.00 | 33 | 1006.9 |
| 20260905120053 | 69 | 155 | 0.0 | 0.0 | 0.00 | 0.00 | 0.00 | 33 | 1007.0 |
| 20260905115538 | 69 | 155 | 0.0 | 0.0 | 0.00 | 0.00 | 0.00 | 32 | 1007.0 |
| 20260905115037 | 69 | 155 | 0.0 | 0.0 | 0.00 | 0.00 | 0.00 | 33 | 1007.0 |
| 20260905114546 | 69 | 155 | 0.0 | 0.0 | 0.00 | 0.00 | 0.00 | 33 | 1006.9 |
| 20260905114036 | 69 | 155 | 0.0 | 0.0 | 0.00 | 0.00 | 0.00 | 33 | 1006.9 |
| 20260905113540 | 70 | 155 | 0.0 | 1.0 | 0.00 | 0.00 | 0.00 | 32 | 1006.8 |
| 20260905113037 | 70 | 155 | 0.0 | 1.0 | 0.00 | 0.00 | 0.00 | 32 | 1006.9 |
| 20260905112535 | 70 | 155 | 0.0 | 0.0 | 0.00 | 0.00 | 0.00 | 32 | 1006.8 |
| 20260905112034 | 70 | 155 | 0.0 | 3.0 | 0.00 | 0.00 | 0.00 | 32 | 1006.8 |
| 20260905111607 | 70 | 155 | 0.0 | 3.0 | 0.00 | 0.00 | 0.00 | 32 | 1006.8 |
| 20260905111033 | 70 | 155 | 0.0 | 2.0 | 0.00 | 0.00 | 0.00 | 32 | 1006.8 |
| 20260905110532 | 70 | 155 | 0.0 | 1.0 | 0.00 | 0.00 | 0.00 | 32 | 1006.8 |
| 20260905110032 | 70 | 155 | 0.0 | 1.0 | 0.00 | 0.00 | 0.00 | 32 | 1006.8 |
| 20260905105532 | 70 | 155 | 0.0 | 1.0 | 0.00 | 0.00 | 0.00 | 32 | 1006.8 |
| 20260905105029 | 71 | 155 | 0.0 | 2.0 | 0.00 | 0.00 | 0.00 | 31 | 1006.8 |
| 20260905104529 | 71 | 155 | 0.0 | 5.0 | 0.00 | 0.00 | 0.00 | 31 | 1006.8 |
| 20260905104028 | 72 | 156 | 1.0 | 5.0 | 0.00 | 0.00 | 0.00 | 30 | 1006.7 |
| 20260905103528 | 72 | 165 | 0.0 | 2.0 | 0.00 | 0.00 | 0.00 | 30 | 1006.7 |
| 20260905103034 | 72 | 165 | 0.0 | 3.0 | 0.00 | 0.00 | 0.00 | 30 | 1006.7 |
| 20260905102525 | 72 | 167 | 0.0 | 3.0 | 0.00 | 0.00 | 0.00 | 30 | 1006.6 |
| 20260905102025 | 72 | 186 | 0.0 | 3.0 | 0.00 | 0.00 | 0.00 | 30 | 1006.6 |
| 20260905101524 | 73 | 202 | 0.0 | 4.0 | 0.00 | 0.00 | 0.00 | 28 | 1006.4 |
| 20260905101027 | 73 | 203 | 0.0 | 4.0 | 0.00 | 0.00 | 0.00 | 28 | 1006.4 |
| 20260905100523 | 73 | 207 | 0.0 | 3.0 | 0.00 | 0.00 | 0.00 | 29 | 1006.4 |
| 20260905100023 | 73 | 208 | 0.0 | 3.0 | 0.00 | 0.00 | 0.00 | 29 | 1006.4 |
| 20260905095521 | 73 | 221 | 0.0 | 2.0 | 0.00 | 0.00 | 0.00 | 29 | 1006.3 |
| 20260905095024 | 73 | 221 | 0.0 | 2.0 | 0.00 | 0.00 | 0.00 | 28 | 1006.5 |
| 20260905094520 | 74 | 221 | 0.0 | 3.0 | 0.00 | 0.00 | 0.00 | 27 | 1006.4 |
| 20260905094020 | 74 | 221 | 0.0 | 3.0 | 0.00 | 0.00 | 0.00 | 27 | 1006.5 |
| 20260905093519 | 74 | 222 | 0.0 | 2.0 | 0.00 | 0.00 | 0.00 | 27 | 1006.4 |
| 20260905093018 | 74 | 222 | 0.0 | 3.0 | 0.00 | 0.00 | 0.00 | 27 | 1006.4 |
| 20260905092517 | 74 | 222 | 0.0 | 5.0 | 0.00 | 0.00 | 0.00 | 27 | 1006.4 |
| 20260905092017 | 74 | 222 | 0.0 | 5.0 | 0.00 | 0.00 | 0.00 | 28 | 1006.4 |
| 20260905091517 | 74 | 227 | 1.0 | 3.0 | 0.00 | 0.00 | 0.00 | 28 | 1006.4 |
| 20260905091015 | 75 | 230 | 0.0 | 1.0 | 0.00 | 0.00 | 0.00 | 27 | 1006.5 |
| 20260905090513 | 75 | 230 | 0.0 | 1.0 | 0.00 | 0.00 | 0.00 | 26 | 1006.4 |
| 20260905090013 | 75 | 230 | 0.0 | 2.0 | 0.00 | 0.00 | 0.00 | 26 | 1006.5 |
| 20260905085513 | 76 | 230 | 0.0 | 3.0 | 0.00 | 0.00 | 0.00 | 25 | 1006.6 |
| 20260905085013 | 76 | 230 | 0.0 | 3.0 | 0.00 | 0.00 | 0.00 | 25 | 1006.5 |
| 20260905084511 | 77 | 232 | 0.0 | 2.0 | 0.00 | 0.00 | 0.00 | 24 | 1006.5 |
| 20260905084012 | 77 | 232 | 0.0 | 2.0 | 0.00 | 0.00 | 0.00 | 24 | 1006.5 |
| 20260905083513 | 77 | 233 | 0.0 | 7.0 | 0.00 | 0.00 | 0.00 | 24 | 1006.5 |
| 20260905083009 | 78 | 233 | 0.0 | 7.0 | 0.00 | 0.00 | 0.00 | 24 | 1006.5 |
| 20260905082508 | 78 | 221 | 0.0 | 5.0 | 0.00 | 0.00 | 0.00 | 23 | 1006.5 |
| 20260905082009 | 78 | 232 | 1.0 | 5.0 | 0.00 | 0.00 | 0.00 | 24 | 1006.4 |
| 20260905081508 | 78 | 231 | 1.0 | 8.0 | 0.00 | 0.00 | 0.00 | 23 | 1006.5 |
| 20260905081007 | 78 | 219 | 1.0 | 8.0 | 0.00 | 0.00 | 0.00 | 23 | 1006.4 |
| 20260905080510 | 78 | 242 | 1.0 | 7.0 | 0.00 | 0.00 | 0.00 | 23 | 1006.4 |
| 20260905080006 | 78 | 229 | 0.0 | 4.0 | 0.00 | 0.00 | 0.00 | 24 | 1006.4 |
| 20260905075506 | 78 | 238 | 1.0 | 5.0 | 0.00 | 0.00 | 0.00 | 24 | 1006.3 |
| 20260905075008 | 78 | 242 | 1.0 | 5.0 | 0.00 | 0.00 | 0.00 | 23 | 1006.2 |
| 20260905074503 | 78 | 229 | 0.0 | 4.0 | 0.00 | 0.00 | 0.00 | 23 | 1006.3 |
| 20260905074001 | 77 | 221 | 1.0 | 4.0 | 0.00 | 0.00 | 0.00 | 23 | 1006.3 |
| 20260905073501 | 77 | 216 | 0.0 | 3.0 | 0.00 | 0.00 | 0.00 | 22 | 1006.3 |
| 20260905073104 | 78 | 216 | 0.0 | 3.0 | 0.00 | 0.00 | 0.00 | 22 | 1006.2 |
| 20260905072600 | 77 | 216 | 0.0 | 3.0 | 0.00 | 0.00 | 0.00 | 22 | 1006.2 |
| 20260905072103 | 77 | 216 | 0.0 | 3.0 | 0.00 | 0.00 | 0.00 | 22 | 1006.3 |
| 20260905071558 | 77 | 216 | 0.0 | 4.0 | 0.00 | 0.00 | 0.00 | 22 | 1006.1 |
| 20260905071056 | 76 | 216 | 0.0 | 4.0 | 0.00 | 0.00 | 0.00 | 22 | 1006.1 |
| 20260905070600 | 76 | 215 | 0.0 | 1.0 | 0.00 | 0.00 | 0.00 | 21 | 1006.0 |
| 20260905070058 | 76 | 215 | 0.0 | 2.0 | 0.00 | 0.00 | 0.00 | 21 | 1006.0 |
| 20260905065555 | 77 | 215 | 0.0 | 2.0 | 0.00 | 0.00 | 0.00 | 21 | 1005.9 |
| 20260905065054 | 77 | 215 | 0.0 | 2.0 | 0.00 | 0.00 | 0.00 | 21 | 1006.1 |
| 20260905064611 | 77 | 215 | 1.0 | 2.0 | 0.00 | 0.00 | 0.00 | 21 | 1006.1 |
| 20260905064054 | 77 | 215 | 0.0 | 2.0 | 0.00 | 0.00 | 0.00 | 21 | 1006.0 |
| 20260905063554 | 77 | 215 | 0.0 | 2.0 | 0.00 | 0.00 | 0.00 | 20 | 1006.0 |
| 20260905063056 | 77 | 215 | 0.0 | 2.0 | 0.00 | 0.00 | 0.00 | 21 | 1005.8 |
| 20260905062553 | 77 | 215 | 0.0 | 1.0 | 0.00 | 0.00 | 0.00 | 21 | 1005.9 |
| 20260905062053 | 77 | 215 | 0.0 | 0.0 | 0.00 | 0.00 | 0.00 | 21 | 1005.8 |
| 20260905061553 | 78 | 215 | 0.0 | 1.0 | 0.00 | 0.00 | 0.00 | 21 | 1005.7 |
| 20260905061052 | 77 | 215 | 0.0 | 1.0 | 0.00 | 0.00 | 0.00 | 20 | 1005.7 |
| 20260905060552 | 78 | 215 | 0.0 | 2.0 | 0.00 | 0.00 | 0.00 | 21 | 1005.8 |
| 20260905060052 | 78 | 215 | 0.0 | 2.0 | 0.00 | 0.00 | 0.00 | 20 | 1005.8 |
| 20260905055554 | 78 | 215 | 0.0 | 2.0 | 0.00 | 0.00 | 0.00 | 20 | 1005.7 |
| 20260905055052 | 78 | 215 | 0.0 | 3.0 | 0.00 | 0.00 | 0.00 | 20 | 1005.6 |
| 20260905054553 | 78 | 215 | 0.0 | 3.0 | 0.00 | 0.00 | 0.00 | 20 | 1005.6 |
| 20260905054054 | 78 | 215 | 0.0 | 3.0 | 0.00 | 0.00 | 0.00 | 20 | 1005.6 |
| 20260905053552 | 78 | 215 | 0.0 | 3.0 | 0.00 | 0.00 | 0.00 | 20 | 1005.7 |
| 20260905053051 | 79 | 215 | 0.0 | 3.0 | 0.00 | 0.00 | 0.00 | 20 | 1005.6 |
| 20260905052551 | 79 | 215 | 0.0 | 3.0 | 0.00 | 0.00 | 0.00 | 20 | 1005.7 |
| 20260905052051 | 79 | 215 | 0.0 | 1.0 | 0.00 | 0.00 | 0.00 | 20 | 1005.7 |
| 20260905051551 | 79 | 215 | 0.0 | 2.0 | 0.00 | 0.00 | 0.00 | 19 | 1005.6 |
| 20260905051050 | 80 | 215 | 0.0 | 3.0 | 0.00 | 0.00 | 0.00 | 19 | 1005.6 |
| 20260905050551 | 80 | 215 | 0.0 | 3.0 | 0.00 | 0.00 | 0.00 | 19 | 1005.6 |
| 20260905050056 | 80 | 213 | 0.0 | 3.0 | 0.00 | 0.00 | 0.00 | 19 | 1005.5 |
| 20260905045550 | 80 | 214 | 0.0 | 3.0 | 0.00 | 0.00 | 0.00 | 19 | 1005.5 |
| 20260905045050 | 80 | 214 | 0.0 | 3.0 | 0.00 | 0.00 | 0.00 | 19 | 1005.4 |
| 20260905044550 | 80 | 212 | 0.0 | 4.0 | 0.00 | 0.00 | 0.00 | 19 | 1005.5 |
| 20260905044050 | 80 | 211 | 1.0 | 4.0 | 0.00 | 0.00 | 0.00 | 19 | 1005.4 |
| 20260905043549 | 80 | 215 | 1.0 | 3.0 | 0.00 | 0.00 | 0.00 | 18 | 1005.4 |
| 20260905043049 | 81 | 221 | 0.0 | 3.0 | 0.00 | 0.00 | 0.00 | 18 | 1005.2 |
| 20260905042549 | 81 | 222 | 0.0 | 3.0 | 0.00 | 0.00 | 0.00 | 18 | 1005.3 |
| 20260905042048 | 81 | 223 | 0.0 | 5.0 | 0.00 | 0.00 | 0.00 | 18 | 1005.2 |
| 20260905041555 | 82 | 215 | 1.0 | 7.0 | 0.00 | 0.00 | 0.00 | 18 | 1005.2 |
| 20260905041048 | 82 | 234 | 1.0 | 7.0 | 0.00 | 0.00 | 0.00 | 18 | 1005.1 |
| 20260905040548 | 82 | 229 | 1.0 | 7.0 | 0.00 | 0.00 | 0.00 | 17 | 1005.1 |
| 20260905040049 | 82 | 223 | 3.0 | 7.0 | 0.00 | 0.00 | 0.00 | 17 | 1005.1 |
| 20260905035548 | 82 | 232 | 1.0 | 9.0 | 0.00 | 0.00 | 0.00 | 17 | 1005.0 |
| 20260905035047 | 82 | 257 | 3.0 | 8.0 | 0.00 | 0.00 | 0.00 | 17 | 1005.0 |
| 20260905034548 | 82 | 219 | 3.0 | 7.0 | 0.00 | 0.00 | 0.00 | 17 | 1005.1 |
| 20260905034052 | 82 | 226 | 2.0 | 10.0 | 0.00 | 0.00 | 0.00 | 17 | 1004.9 |
| 20260905033548 | 82 | 244 | 2.0 | 8.0 | 0.00 | 0.00 | 0.00 | 17 | 1004.8 |
| 20260905033047 | 82 | 229 | 2.0 | 8.0 | 0.00 | 0.00 | 0.00 | 17 | 1004.8 |
| 20260905032547 | 82 | 237 | 3.0 | 8.0 | 0.00 | 0.00 | 0.00 | 17 | 1004.7 |
| 20260905032046 | 82 | 232 | 2.0 | 9.0 | 0.00 | 0.00 | 0.00 | 17 | 1004.6 |
| 20260905031546 | 83 | 236 | 2.0 | 9.0 | 0.00 | 0.00 | 0.00 | 17 | 1004.6 |
| 20260905031046 | 83 | 252 | 4.0 | 12.0 | 0.00 | 0.00 | 0.00 | 17 | 1004.5 |
| 20260905030546 | 83 | 235 | 3.0 | 12.0 | 0.00 | 0.00 | 0.00 | 17 | 1004.4 |
| 20260905030052 | 83 | 236 | 4.0 | 11.0 | 0.00 | 0.00 | 0.00 | 17 | 1004.4 |
| 20260905025546 | 83 | 221 | 4.0 | 11.0 | 0.00 | 0.00 | 0.00 | 17 | 1004.3 |
| 20260905025148 | 83 | 226 | 5.0 | 10.0 | 0.00 | 0.00 | 0.00 | 17 | 1004.3 |
| 20260905024550 | 83 | 234 | 2.0 | 9.0 | 0.00 | 0.00 | 0.00 | 17 | 1004.3 |
| 20260905024045 | 83 | 229 | 3.0 | 9.0 | 0.00 | 0.00 | 0.00 | 17 | 1004.3 |
| 20260905023546 | 83 | 200 | 4.0 | 9.0 | 0.00 | 0.00 | 0.00 | 17 | 1004.2 |
| 20260905023045 | 83 | 207 | 3.0 | 10.0 | 0.00 | 0.00 | 0.00 | 17 | 1004.3 |
| 20260905022544 | 83 | 209 | 3.0 | 9.0 | 0.00 | 0.00 | 0.00 | 17 | 1004.3 |
| 20260905022044 | 84 | 229 | 3.0 | 10.0 | 0.00 | 0.00 | 0.00 | 17 | 1004.2 |
| 20260905021545 | 84 | 218 | 4.0 | 10.0 | 0.00 | 0.00 | 0.00 | 17 | 1004.2 |
| 20260905021044 | 84 | 216 | 2.0 | 13.0 | 0.00 | 0.00 | 0.00 | 17 | 1004.2 |
| 20260905020544 | 84 | 205 | 3.0 | 9.0 | 0.00 | 0.00 | 0.00 | 16 | 1004.3 |
| 20260905020044 | 84 | 227 | 4.0 | 9.0 | 0.00 | 0.00 | 0.00 | 16 | 1004.3 |
| 20260905015543 | 84 | 238 | 3.0 | 8.0 | 0.00 | 0.00 | 0.00 | 16 | 1004.3 |
| 20260905015047 | 85 | 233 | 3.0 | 11.0 | 0.00 | 0.00 | 0.00 | 16 | 1004.4 |
| 20260905014553 | 85 | 210 | 4.0 | 11.0 | 0.00 | 0.00 | 0.00 | 16 | 1004.4 |
| 20260905014043 | 85 | 229 | 3.0 | 9.0 | 0.00 | 0.00 | 0.00 | 16 | 1004.5 |
| 20260905013542 | 85 | 221 | 4.0 | 9.0 | 0.00 | 0.00 | 0.00 | 15 | 1004.4 |
| 20260905013042 | 86 | 234 | 3.0 | 9.0 | 0.00 | 0.00 | 0.00 | 15 | 1004.4 |
| 20260905012543 | 86 | 211 | 4.0 | 10.0 | 0.00 | 0.00 | 0.00 | 15 | 1004.4 |
| 20260905012043 | 86 | 252 | 4.0 | 10.0 | 0.00 | 0.00 | 0.00 | 14 | 1004.4 |
| 20260905011542 | 87 | 220 | 3.0 | 9.0 | 0.00 | 0.00 | 0.00 | 14 | 1004.4 |
| 20260905011043 | 87 | 238 | 3.0 | 9.0 | 0.00 | 0.00 | 0.00 | 14 | 1004.4 |
| 20260905010545 | 87 | 226 | 3.0 | 7.0 | 0.00 | 0.00 | 0.00 | 14 | 1004.4 |
| 20260905010045 | 87 | 242 | 3.0 | 8.0 | 0.00 | 0.00 | 0.00 | 14 | 1004.4 |
| 20260905005541 | 88 | 246 | 3.0 | 10.0 | 0.00 | 0.00 | 0.00 | 14 | 1004.3 |
| 20260905005040 | 88 | 230 | 4.0 | 10.0 | 0.00 | 0.00 | 0.00 | 14 | 1004.3 |
| 20260905004540 | 88 | 248 | 2.0 | 10.0 | 0.00 | 0.00 | 0.00 | 14 | 1004.4 |
| 20260905004040 | 88 | 193 | 5.0 | 12.0 | 0.00 | 0.00 | 0.00 | 14 | 1004.4 |
| 20260905003540 | 89 | 209 | 4.0 | 10.0 | 0.00 | 0.00 | 0.00 | 13 | 1004.3 |
| 20260905003039 | 89 | 236 | 3.0 | 9.0 | 0.00 | 0.00 | 0.00 | 14 | 1004.2 |
| 20260905002539 | 89 | 248 | 3.0 | 8.0 | 0.00 | 0.00 | 0.00 | 13 | 1004.3 |
| 20260905002039 | 89 | 223 | 3.0 | 10.0 | 0.00 | 0.00 | 0.00 | 13 | 1004.2 |
| 20260905001540 | 89 | 209 | 5.0 | 13.0 | 0.00 | 0.00 | 0.00 | 13 | 1004.3 |
| 20260905001038 | 89 | 267 | 4.0 | 13.0 | 0.00 | 0.00 | 0.00 | 13 | 1004.3 |
| 20260905000541 | 89 | 245 | 5.0 | 15.0 | 0.00 | 0.00 | 0.00 | 13 | 1004.3 |
| 20260905000039 | 89 | 213 | 4.0 | 15.0 | 0.00 | 0.00 | 0.00 | 13 | 1004.3 |
| 20260904235537 | 89 | 244 | 4.0 | 11.0 | 0.00 | 0.00 | 0.00 | 13 | 1004.2 |
| 20260904235038 | 90 | 210 | 4.0 | 11.0 | 0.00 | 0.00 | 0.00 | 13 | 1004.3 |
| 20260904234540 | 90 | 241 | 3.0 | 11.0 | 0.00 | 0.00 | 0.00 | 13 | 1004.2 |
| 20260904234038 | 90 | 221 | 5.0 | 11.0 | 0.00 | 0.00 | 0.00 | 13 | 1004.3 |
| 20260904233535 | 90 | 214 | 4.0 | 9.0 | 0.00 | 0.00 | 0.00 | 13 | 1004.2 |
| 20260904233034 | 90 | 244 | 2.0 | 10.0 | 0.00 | 0.00 | 0.00 | 12 | 1004.2 |
| 20260904232534 | 90 | 281 | 3.0 | 10.0 | 0.00 | 0.00 | 0.00 | 12 | 1004.2 |
| 20260904232032 | 90 | 252 | 4.0 | 10.0 | 0.00 | 0.00 | 0.00 | 12 | 1004.3 |
| 20260904231532 | 90 | 194 | 4.0 | 10.0 | 0.00 | 0.00 | 0.00 | 12 | 1004.3 |
| 20260904231035 | 89 | 198 | 5.0 | 15.0 | 0.00 | 0.00 | 0.00 | 13 | 1004.3 |
| 20260904230532 | 90 | 157 | 2.0 | 11.0 | 0.00 | 0.00 | 0.00 | 13 | 1004.3 |
| 20260904230033 | 90 | 234 | 3.0 | 16.0 | 0.00 | 0.00 | 0.00 | 13 | 1004.3 |
| 20260904225530 | 89 | 215 | 5.0 | 16.0 | 0.00 | 0.00 | 0.00 | 14 | 1004.3 |
| 20260904225031 | 90 | 139 | 7.0 | 11.0 | 0.00 | 0.00 | 0.00 | 13 | 1004.4 |
| 20260904224530 | 90 | 159 | 3.0 | 10.0 | 0.00 | 0.00 | 0.00 | 13 | 1004.5 |
| 20260904224029 | 90 | 202 | 4.0 | 15.0 | 0.00 | 0.00 | 0.00 | 13 | 1004.6 |
| 20260904223529 | 89 | 234 | 3.0 | 16.0 | 0.00 | 0.00 | 0.00 | 14 | 1004.7 |
| 20260904223033 | 89 | 126 | 8.0 | 16.0 | 0.00 | 0.00 | 0.00 | 14 | 1004.6 |
| 20260904222527 | 89 | 144 | 7.0 | 17.0 | 0.00 | 0.00 | 0.00 | 14 | 1004.6 |
| 20260904222028 | 89 | 175 | 6.0 | 14.0 | 0.00 | 0.00 | 0.00 | 14 | 1004.7 |
| 20260904221541 | 89 | 151 | 4.0 | 10.0 | 0.00 | 0.00 | 0.00 | 14 | 1004.7 |
| 20260904221024 | 89 | 167 | 6.0 | 15.0 | 0.00 | 0.00 | 0.00 | 14 | 1004.7 |
| 20260904220523 | 89 | 205 | 7.0 | 15.0 | 0.00 | 0.00 | 0.00 | 14 | 1004.7 |
| 20260904220022 | 89 | 209 | 8.0 | 13.0 | 0.00 | 0.00 | 0.00 | 14 | 1004.8 |
| 20260904215522 | 89 | 186 | 6.0 | 19.0 | 0.00 | 0.00 | 0.00 | 14 | 1004.9 |
| 20260904215021 | 88 | 194 | 9.0 | 19.0 | 0.00 | 0.00 | 0.00 | 15 | 1004.9 |
| 20260904214521 | 88 | 156 | 6.0 | 14.0 | 0.00 | 0.00 | 0.00 | 15 | 1004.9 |
| 20260904214022 | 88 | 166 | 7.0 | 16.0 | 0.00 | 0.00 | 0.00 | 15 | 1005.0 |
| 20260904213522 | 88 | 111 | 9.0 | 16.0 | 0.00 | 0.00 | 0.00 | 15 | 1005.0 |
| 20260904213019 | 89 | 143 | 7.0 | 15.0 | 0.00 | 0.00 | 0.00 | 15 | 1005.2 |
| 20260904212519 | 89 | 194 | 9.0 | 15.0 | 0.00 | 0.00 | 0.00 | 15 | 1005.1 |
| 20260904212018 | 88 | 203 | 6.0 | 18.0 | 0.00 | 0.00 | 0.00 | 14 | 1005.0 |
| 20260904211517 | 89 | 130 | 8.0 | 18.0 | 0.00 | 0.00 | 0.00 | 15 | 1005.1 |
| 20260904211016 | 88 | 180 | 6.0 | 14.0 | 0.00 | 0.00 | 0.00 | 15 | 1005.1 |
| 20260904210517 | 88 | 193 | 2.0 | 18.0 | 0.00 | 0.00 | 0.00 | 15 | 1005.2 |
| 20260904210016 | 88 | 200 | 6.0 | 18.0 | 0.00 | 0.00 | 0.00 | 15 | 1005.3 |
| 20260904205516 | 87 | 142 | 8.0 | 18.0 | 0.00 | 0.00 | 0.00 | 15 | 1005.2 |
| 20260904205015 | 87 | 200 | 9.0 | 22.0 | 0.00 | 0.00 | 0.00 | 15 | 1005.4 |
| 20260904204514 | 88 | 198 | 10.0 | 22.0 | 0.00 | 0.00 | 0.00 | 14 | 1005.3 |
| 20260904204015 | 88 | 195 | 7.0 | 17.0 | 0.00 | 0.00 | 0.00 | 15 | 1005.4 |
| 20260904203514 | 88 | 180 | 5.0 | 17.0 | 0.00 | 0.00 | 0.00 | 16 | 1005.3 |
| 20260904203019 | 87 | 175 | 8.0 | 17.0 | 0.00 | 0.00 | 0.00 | 16 | 1005.3 |
| 20260904202511 | 86 | 151 | 7.0 | 18.0 | 0.00 | 0.00 | 0.00 | 17 | 1005.2 |
| 20260904202012 | 86 | 130 | 7.0 | 18.0 | 0.00 | 0.00 | 0.00 | 17 | 1005.3 |
| 20260904201518 | 86 | 134 | 10.0 | 17.0 | 0.00 | 0.00 | 0.00 | 16 | 1005.3 |
| 20260904201011 | 86 | 159 | 7.0 | 18.0 | 0.00 | 0.00 | 0.00 | 18 | 1005.4 |
| 20260904200511 | 86 | 209 | 10.0 | 18.0 | 0.00 | 0.00 | 0.00 | 18 | 1005.5 |
| 20260904200011 | 86 | 161 | 6.0 | 17.0 | 0.00 | 0.00 | 0.00 | 17 | 1005.6 |
| 20260904195510 | 86 | 165 | 7.0 | 21.0 | 0.00 | 0.00 | 0.00 | 18 | 1005.5 |
| 20260904195009 | 85 | 180 | 9.0 | 21.0 | 0.00 | 0.00 | 0.00 | 18 | 1005.6 |
| 20260904194510 | 86 | 182 | 9.0 | 18.0 | 0.00 | 0.00 | 0.00 | 18 | 1005.6 |
| 20260904194011 | 85 | 182 | 8.0 | 17.0 | 0.00 | 0.00 | 0.00 | 17 | 1005.6 |
| 20260904193509 | 85 | 169 | 6.0 | 18.0 | 0.00 | 0.00 | 0.00 | 18 | 1005.8 |
| 20260904193008 | 86 | 136 | 8.0 | 16.0 | 0.00 | 0.00 | 0.00 | 18 | 1005.8 |
| 20260904192506 | 85 | 129 | 8.0 | 18.0 | 0.00 | 0.00 | 0.00 | 18 | 1005.9 |
| 20260904192006 | 85 | 179 | 10.0 | 19.0 | 0.00 | 0.00 | 0.00 | 18 | 1005.9 |
| 20260904191506 | 85 | 165 | 8.0 | 20.0 | 0.00 | 0.00 | 0.00 | 18 | 1006.0 |
| 20260904191008 | 85 | 188 | 8.0 | 19.0 | 0.00 | 0.00 | 0.00 | 18 | 1005.9 |
| 20260904190506 | 85 | 186 | 6.0 | 19.0 | 0.00 | 0.00 | 0.00 | 19 | 1006.0 |
| 20260904190007 | 85 | 175 | 5.0 | 14.0 | 0.00 | 0.00 | 0.00 | 19 | 1006.2 |